Location: Albany
(42.6526°N, 73.7562°W)
Time: 03:35:21
(UTC+00:00)

Cosmos 1470 Rocket - Pass Details

Date: 19 November 2019
Orbit: 604 x 633 km, 82.5° (Epoch: 05 December)

Event Time Altitude Azimuth Distance (km) Brightness Sun altitude
Rises 22:52:34 0° 354° (N) 2,938 7.0 -15.3°
Reaches altitude 10° 22:54:50 10° 358° (N) 2,025 6.1 -15.7°
Maximum altitude 22:59:18 66° 80° (E) 695 3.5 -16.5°
Drops below altitude 10° 23:03:43 10° 163° (SSE) 2,002 6.1 -17.3°
Sets 23:05:57 0° 166° (SSE) 2,901 7.0 -17.7°
